Wind_Speed
69 69 70 72 75 77 79 81 84 85 86 87 87 89 90 91 92 93 92 93 94 94 96 96 96 97 99 99 100 100 99 96
77 79 80 82 84 85 87 89 90 90 92 92 94 94 90 92 92 90 91 90 92 92 92 93 94 94 94 92 91 92 92 88
83 84 85 86 87 89 89 90 89 88 86 86 84 83 83 84 85 86 85 86 88 90 91 89 91 92 95 91 92 90 88 89
80 79 80 81 80 79 78 77 78 82 82 84 86 88 89 92 91 90 91 91 91 91 91 89 91 92 91 92 91 91 91 91
73 73 74 75 75 78 80 81 83 85 86 88 89 88 88 87 88 89 90 91 90 91 90 91 91 90 91 91 91 91 88 85
73 74 76 76 78 80 82 84 85 84 84 84 85 86 86 86 87 89 89 88 89 89 90 90 90 90 90 90 88 86 86 85
75 76 78 80 81 82 82 82 82 82 82 82 84 84 86 86 86 85 85 85 87 89 90 90 90 88 88 91 91 90 89 87
77 77 78 78 78 79 78 78 78 79 80 81 83 83 81 80 81 83 85 86 88 88 87 89 92 93 94 93 93 91 87 83
74 74 76 76 75 74 76 77 79 78 79 77 76 75 76 80 83 84 86 86 86 90 92 92 91 91 90 89 86 85 83 83
75 74 74 73 75 76 77 77 76 72 68 69 74 77 80 81 83 84 85 90 91 90 88 88 87 90 91 91 86 81 81 80
72 72 73 75 75 74 72 66 64 66 68 72 75 77 77 80 85 88 90 88 86 85 88 90 90 88 87 87 82 76 74 74
72 74 74 73 70 63 57 62 62 66 70 69 71 76 81 85 88 86 85 83 85 88 88 87 86 83 81 79 72 65 65 61
74 70 68 61 50 52 56 62 64 64 64 69 75 80 85 85 84 83 85 87 87 84 86 85 80 75 73 70 63 54 52 52
64 56 47 44 49 56 58 60 59 62 69 75 82 83 81 80 81 85 87 85 83 82 79 78 73 66 62 58 54 39 47 38
46 39 42 48 52 54 53 55 62 69 75 78 76 75 77 81 84 85 81 79 78 76 73 69 65 54 46 46 43 32 38 38
36 41 44 49 49 48 54 60 68 72 74 73 73 75 79 82 81 78 75 74 73 69 64 57 49 43 37 35 31 29 31 36
37 41 45 44 46 53 59 65 68 69 69 70 75 79 82 77 75 73 72 71 66 60 52 44 39 34 28 25 24 26 30 36
40 43 41 45 51 58 63 64 65 67 71 75 79 81 76 73 71 70 69 63 57 50 42 37 31 24 20 18 18 22 30 36
37 38 43 50 56 59 59 61 65 69 73 77 77 72 70 69 68 67 62 55 48 42 37 29 20 15 10 11 16 24 31 41
37 42 48 53 56 57 60 63 67 71 74 71 67 64 66 65 63 57 52 46 40 35 28 19 12 5 5 12 19 27 38 48
Wind_Direction
287 287 286 285 286 287 287 288 288 287 288 288 288 288 287 287 287 285 285 284 282 282 281 280 280 279 277 275 275 274 274 274
288 288 289 290 289 289 289 290 291 291 289 289 288 288 288 286 287 286 284 283 283 282 280 279 279 278 277 275 273 273 274 272
288 289 289 290 289 289 289 290 290 290 288 288 288 287 287 287 285 286 286 284 282 281 280 279 278 277 274 272 271 272 271 270
289 289 288 288 290 290 289 290 291 291 292 290 290 289 288 289 288 287 286 285 284 282 280 278 276 273 270 271 271 270 271 272
290 290 290 290 290 291 292 292 293 293 293 292 292 291 290 290 289 288 287 285 283 280 278 276 275 275 275 274 273 273 271 269
291 291 292 293 293 294 295 295 294 294 294 294 293 292 292 292 290 288 287 284 283 280 281 281 282 280 279 277 274 272 271 269
292 293 294 295 295 295 295 295 294 295 294 294 295 295 294 292 290 289 288 287 286 286 287 285 284 282 281 279 277 275 272 269
294 295 296 296 296 295 295 296 295 296 298 297 297 295 294 293 291 290 291 291 290 289 288 287 287 285 282 280 277 274 271 267
295 297 297 296 297 298 299 299 302 298 299 297 298 296 295 294 295 295 294 294 293 292 290 290 287 285 283 280 276 273 269 265
298 298 298 300 300 302 303 302 302 300 300 298 297 296 298 298 297 296 296 296 295 293 292 291 290 287 284 281 277 274 269 264
298 298 300 302 304 303 304 304 301 301 301 301 301 301 299 298 298 298 298 297 297 297 295 293 290 286 283 280 278 273 268 261
301 301 303 303 305 305 303 303 303 303 304 302 299 299 300 300 302 301 301 301 300 299 295 291 289 287 286 283 280 275 268 259
302 304 304 306 305 305 304 304 304 302 301 299 299 300 302 304 303 303 304 304 301 298 295 294 294 292 289 286 280 272 262 250
303 303 306 306 305 306 305 304 305 304 303 301 300 303 304 305 306 307 305 303 301 298 298 298 296 293 288 282 275 264 254 239
301 306 308 308 307 306 308 307 306 304 303 305 306 307 309 309 308 306 304 303 300 302 302 299 297 293 283 276 271 257 243 226
308 310 308 307 309 310 307 307 308 308 308 309 310 311 310 309 308 306 306 304 307 306 302 299 296 289 283 272 263 243 228 216
311 307 307 311 310 312 309 308 310 310 311 312 312 311 311 311 311 310 310 311 310 308 305 304 298 291 281 262 244 225 213 203
306 310 313 312 311 310 310 313 313 314 314 313 313 314 314 315 315 315 315 314 313 312 312 309 299 288 274 253 227 207 197 185
316 316 314 312 312 314 316 316 317 314 314 314 315 316 319 320 319 319 318 319 319 320 317 309 304 292 268 228 198 184 177 173
317 315 314 315 315 317 319 317 314 314 316 317 319 322 324 321 322 321 323 324 325 323 318 319 316 291 190 167 168 161 163 163
Height
10751 10747 10743 10738 10734 10729 10725 10721 10718 10713 10708 10704 10700 10696 10692 10689 10686 10683 10680 10676 10674 10674 10670 10669 10667 10664 10663 10662 10659 10659 10660 10660
10737 10733 10728 10723 10718 10713 10707 10703 10698 10693 10688 10683 10679 10674 10671 10667 10662 10657 10655 10651 10649 10646 10645 10642 10639 10635 10633 10634 10633 10630 10631 10632
10722 10717 10711 10705 10700 10694 10688 10683 10677 10672 10667 10662 10657 10652 10648 10644 10640 10635 10631 10628 10625 10622 10618 10617 10613 10608 10605 10604 10604 10605 10605 10606
10706 10700 10694 10689 10682 10675 10669 10663 10657 10653 10647 10642 10636 10631 10626 10620 10614 10610 10606 10602 10598 10594 10591 10588 10586 10581 10578 10578 10579 10581 10581 10580
10692 10685 10679 10672 10665 10660 10653 10646 10639 10634 10628 10621 10614 10607 10601 10596 10591 10585 10580 10575 10569 10564 10560 10558 10556 10554 10552 10551 10552 10554 10556 10557
10676 10670 10663 10656 10649 10643 10636 10628 10621 10614 10608 10599 10590 10584 10578 10571 10566 10559 10553 10546 10540 10536 10531 10529 10527 10525 10522 10520 10519 10520 10524 10527
10661 10654 10646 10638 10630 10623 10616 10609 10601 10594 10585 10577 10568 10561 10554 10547 10540 10534 10528 10522 10516 10510 10505 10500 10497 10494 10491 10487 10484 10487 10490 10497
10643 10637 10628 10620 10612 10605 10598 10590 10582 10574 10565 10556 10548 10540 10532 10524 10517 10510 10506 10499 10492 10485 10478 10471 10465 10460 10454 10453 10451 10451 10454 10459
10626 10619 10611 10603 10594 10587 10580 10571 10563 10554 10545 10536 10528 10521 10513 10505 10497 10488 10481 10473 10465 10457 10449 10442 10433 10424 10417 10413 10416 10417 10418 10423
10609 10602 10595 10587 10578 10570 10560 10551 10543 10534 10526 10519 10511 10502 10494 10485 10475 10466 10456 10448 10439 10428 10418 10409 10401 10393 10383 10374 10376 10379 10380 10383
10592 10585 10578 10570 10561 10552 10541 10533 10526 10518 10510 10503 10493 10483 10474 10464 10454 10444 10433 10421 10411 10400 10387 10379 10368 10358 10349 10341 10340 10344 10345 10347
10575 10568 10561 10553 10544 10535 10527 10519 10512 10504 10496 10486 10476 10466 10456 10444 10432 10420 10407 10397 10385 10373 10359 10345 10337 10327 10317 10308 10308 10311 10310 10315
10561 10553 10545 10538 10531 10524 10516 10508 10500 10492 10483 10471 10460 10449 10436 10423 10409 10397 10384 10372 10358 10344 10329 10313 10304 10298 10288 10279 10277 10281 10281 10286
10546 10539 10533 10527 10521 10513 10504 10496 10486 10477 10466 10454 10441 10429 10417 10404 10390 10377 10362 10346 10332 10316 10302 10286 10276 10272 10263 10255 10249 10260 10255 10267
10535 10530 10525 10517 10510 10502 10493 10483 10473 10462 10448 10436 10423 10410 10398 10384 10371 10356 10340 10324 10307 10291 10276 10264 10252 10248 10241 10233 10232 10239 10239 10247
10528 10522 10515 10507 10499 10491 10481 10470 10459 10445 10430 10417 10406 10394 10382 10368 10351 10335 10317 10299 10284 10269 10257 10245 10235 10226 10222 10218 10219 10221 10227 10235
10520 10514 10505 10498 10490 10480 10468 10456 10444 10430 10416 10404 10392 10378 10364 10349 10331 10312 10294 10278 10263 10250 10238 10227 10218 10212 10208 10206 10207 10211 10218 10228
10512 10504 10497 10489 10479 10467 10456 10443 10429 10416 10403 10390 10376 10360 10345 10328 10309 10291 10275 10260 10246 10233 10222 10212 10205 10201 10199 10198 10200 10206 10213 10224
10504 10496 10488 10479 10467 10456 10444 10431 10418 10406 10392 10378 10362 10345 10328 10309 10290 10274 10258 10245 10231 10220 10210 10202 10197 10194 10192 10193 10196 10202 10212 10223
10498 10489 10480 10469 10457 10445 10433 10422 10409 10395 10381 10366 10351 10334 10315 10295 10278 10262 10249 10234 10222 10211 10202 10196 10192 10190 10189 10192 10197 10204 10214 10226